TimeEDT,TemperatureF,Dew PointF,Humidity,Sea Level PressureIn,VisibilityMPH,Wind Direction,Wind SpeedMPH,Gust SpeedMPH,PrecipitationIn,Events,Conditions,WindDirDegrees,DateUTC
12:15 AM,35.4,27.1,72,29.80,10.0,Calm,Calm,-,N/A,,Clear,0,2013-03-21 04:15:00
12:35 AM,35.2,26.2,70,29.79,10.0,Calm,Calm,-,N/A,,Clear,0,2013-03-21 04:35:00
12:55 AM,34.2,26.4,73,29.79,10.0,SSE,4.6,-,N/A,,Clear,160,2013-03-21 04:55:00
1:15 AM,35.1,27.1,73,29.78,10.0,SSE,3.5,-,N/A,,Clear,160,2013-03-21 05:15:00
1:35 AM,32.5,27.1,80,29.77,10.0,SSE,3.5,-,N/A,,Clear,160,2013-03-21 05:35:00
1:55 AM,32.2,27.1,82,29.76,10.0,South,3.5,-,N/A,,Clear,170,2013-03-21 05:55:00
2:15 AM,32.5,27.1,80,29.75,10.0,Calm,Calm,-,N/A,,Clear,0,2013-03-21 06:15:00
2:35 AM,32.5,27.5,82,29.73,10.0,Calm,Calm,-,N/A,,Clear,0,2013-03-21 06:35:00
2:55 AM,31.1,26.6,83,29.73,10.0,Calm,Calm,-,N/A,,Clear,0,2013-03-21 06:55:00
3:15 AM,30.2,26.2,85,29.73,10.0,Calm,Calm,-,N/A,,Scattered Clouds,0,2013-03-21 07:15:00
3:35 AM,30.2,27.1,88,29.73,10.0,Calm,Calm,-,N/A,,Scattered Clouds,0,2013-03-21 07:35:00
3:55 AM,30.2,26.4,86,29.73,10.0,Calm,Calm,-,N/A,,Scattered Clouds,0,2013-03-21 07:55:00
4:15 AM,30.2,27.0,88,29.73,10.0,Calm,Calm,-,N/A,,Mostly Cloudy,0,2013-03-21 08:15:00
4:35 AM,30.7,27.0,86,29.72,10.0,Calm,Calm,-,N/A,,Mostly Cloudy,0,2013-03-21 08:35:00
4:55 AM,36.7,28.2,71,29.72,10.0,WNW,3.5,-,N/A,,Mostly Cloudy,290,2013-03-21 08:55:00
5:15 AM,39.0,29.8,70,29.72,10.0,NW,3.5,-,N/A,,Mostly Cloudy,320,2013-03-21 09:15:00
5:55 AM,42.3,32.4,68,29.71,10.0,NNW,5.8,-,N/A,,Scattered Clouds,330,2013-03-21 09:55:00
6:15 AM,40.1,31.1,70,29.71,10.0,NNW,3.5,-,N/A,,Scattered Clouds,330,2013-03-21 10:15:00
6:55 AM,38.5,25.5,60,29.73,10.0,NNW,6.9,-,N/A,,Clear,340,2013-03-21 10:55:00
7:15 AM,37.6,25.2,61,29.73,10.0,NNW,6.9,-,N/A,,Clear,340,2013-03-21 11:15:00
7:35 AM,36.7,25.2,63,29.74,10.0,North,5.8,-,N/A,,Clear,350,2013-03-21 11:35:00
7:55 AM,37.6,26.6,65,29.74,10.0,North,6.9,-,N/A,,Clear,350,2013-03-21 11:55:00
8:15 AM,37.6,26.6,65,29.74,10.0,North,8.1,-,N/A,,Clear,350,2013-03-21 12:15:00
8:35 AM,37.9,26.2,63,29.73,10.0,North,12.7,19.6,N/A,,Clear,360,2013-03-21 12:35:00
8:55 AM,38.7,26.1,61,29.74,10.0,North,19.6,23.0,N/A,,Clear,360,2013-03-21 12:55:00
9:15 AM,39.0,26.1,60,29.74,10.0,North,13.8,20.7,N/A,,Clear,360,2013-03-21 13:15:00
9:35 AM,39.7,25.9,58,29.75,10.0,North,15.0,-,N/A,,Scattered Clouds,360,2013-03-21 13:35:00
9:55 AM,39.6,25.7,58,29.76,10.0,North,12.7,18.4,N/A,,Mostly Cloudy,360,2013-03-21 13:55:00
10:15 AM,38.8,25.5,59,29.76,10.0,NNW,6.9,17.3,N/A,,Mostly Cloudy,330,2013-03-21 14:15:00
10:35 AM,38.7,25.2,58,29.77,10.0,North,9.2,20.7,N/A,,Scattered Clouds,350,2013-03-21 14:35:00
10:55 AM,37.6,25.0,60,29.78,10.0,NNW,9.2,18.4,N/A,,Mostly Cloudy,340,2013-03-21 14:55:00
11:15 AM,37.6,25.7,62,29.78,10.0,North,13.8,17.3,N/A,,Mostly Cloudy,360,2013-03-21 15:15:00
11:35 AM,37.2,25.9,64,29.78,10.0,North,9.2,17.3,N/A,,Mostly Cloudy,350,2013-03-21 15:35:00
11:55 AM,35.2,26.4,70,29.79,10.0,NNW,11.5,18.4,N/A,,Mostly Cloudy,340,2013-03-21 15:55:00
12:15 PM,35.1,26.6,71,29.80,10.0,NNW,9.2,-,N/A,,Overcast,340,2013-03-21 16:15:00
12:35 PM,35.1,27.5,74,29.80,10.0,NNW,10.4,16.1,N/A,,Overcast,340,2013-03-21 16:35:00
12:55 PM,35.1,26.6,71,29.80,10.0,North,10.4,-,N/A,,Overcast,350,2013-03-21 16:55:00
1:15 PM,35.1,27.1,73,29.80,10.0,NNW,11.5,16.1,N/A,Snow,Light Snow,340,2013-03-21 17:15:00
1:35 PM,35.1,27.0,72,29.79,10.0,North,6.9,-,N/A,,Mostly Cloudy,350,2013-03-21 17:35:00
1:55 PM,35.6,27.0,71,29.79,10.0,NNW,5.8,-,N/A,,Mostly Cloudy,340,2013-03-21 17:55:00
2:15 PM,36.5,26.6,67,29.79,10.0,Calm,Calm,-,N/A,,Mostly Cloudy,0,2013-03-21 18:15:00
2:35 PM,36.7,26.4,66,29.78,10.0,NNW,3.5,-,N/A,,Scattered Clouds,330,2013-03-21 18:35:00
2:55 PM,35.4,28.0,75,29.78,10.0,North,6.9,-,N/A,Rain,Light Rain,350,2013-03-21 18:55:00
3:15 PM,36.5,28.2,72,29.78,10.0,Calm,Calm,-,N/A,Rain,Light Rain,0,2013-03-21 19:15:00
3:35 PM,36.5,29.1,75,29.78,10.0,North,5.8,-,N/A,Snow,Light Snow,350,2013-03-21 19:35:00
3:55 PM,37.9,29.1,71,29.77,10.0,Calm,Calm,-,N/A,,Mostly Cloudy,0,2013-03-21 19:55:00
4:15 PM,41.5,25.3,53,29.77,10.0,WSW,4.6,-,N/A,,Mostly Cloudy,240,2013-03-21 20:15:00
4:35 PM,39.2,20.3,47,29.77,10.0,NW,4.6,-,N/A,,Mostly Cloudy,320,2013-03-21 20:35:00
4:55 PM,38.5,24.4,57,29.78,10.0,North,4.6,-,N/A,,Scattered Clouds,350,2013-03-21 20:55:00
5:15 PM,39.7,24.1,54,29.78,10.0,North,4.6,-,N/A,,Scattered Clouds,350,2013-03-21 21:15:00
5:35 PM,39.4,22.5,51,29.79,10.0,Calm,Calm,-,N/A,,Scattered Clouds,0,2013-03-21 21:35:00
5:55 PM,42.8,15.6,33,29.80,10.0,WNW,6.9,-,N/A,,Mostly Cloudy,300,2013-03-21 21:55:00
6:15 PM,40.1,9.3,28,29.81,10.0,NW,6.9,-,N/A,,Mostly Cloudy,310,2013-03-21 22:15:00
6:35 PM,38.8,8.6,29,29.82,10.0,NW,4.6,-,N/A,,Mostly Cloudy,310,2013-03-21 22:35:00
6:55 PM,38.3,7.9,28,29.83,10.0,WNW,6.9,-,N/A,,Scattered Clouds,300,2013-03-21 22:55:00
7:15 PM,37.6,5.7,27,29.84,10.0,WNW,8.1,-,N/A,,Clear,300,2013-03-21 23:15:00
7:35 PM,36.9,7.2,29,29.86,10.0,Calm,Calm,-,N/A,,Clear,0,2013-03-21 23:35:00
7:55 PM,36.5,6.8,29,29.87,10.0,Calm,Calm,-,N/A,,Clear,0,2013-03-21 23:55:00
8:15 PM,35.1,6.6,31,29.88,10.0,Calm,Calm,-,N/A,,Clear,0,2013-03-22 00:15:00
8:35 PM,35.1,6.3,30,29.88,10.0,WNW,3.5,-,N/A,,Clear,290,2013-03-22 00:35:00
8:55 PM,35.1,6.4,30,29.90,10.0,Calm,Calm,-,N/A,,Clear,0,2013-03-22 00:55:00
9:15 PM,35.1,7.7,32,29.91,10.0,Calm,Calm,-,N/A,,Clear,0,2013-03-22 01:15:00
9:35 PM,35.1,7.7,32,29.92,10.0,Calm,Calm,-,N/A,,Clear,0,2013-03-22 01:35:00
9:55 PM,34.3,7.9,33,29.93,10.0,NW,3.5,-,N/A,,Clear,320,2013-03-22 01:55:00
10:15 PM,33.1,6.6,33,29.93,10.0,Calm,Calm,-,N/A,,Clear,0,2013-03-22 02:15:00
10:35 PM,32.5,6.4,33,29.94,10.0,Calm,Calm,-,N/A,,Clear,0,2013-03-22 02:35:00
10:55 PM,32.5,7.2,35,29.94,10.0,NW,3.5,-,N/A,,Clear,320,2013-03-22 02:55:00
11:15 PM,32.5,8.1,36,29.95,10.0,Calm,Calm,-,N/A,,Clear,0,2013-03-22 03:15:00
11:35 PM,32.0,9.0,38,29.95,10.0,Calm,Calm,-,N/A,,Clear,0,2013-03-22 03:35:00
11:55 PM,30.9,7.9,38,29.96,10.0,Calm,Calm,-,N/A,,Clear,0,2013-03-22 03:55:00